DW5923 Weather Reports


time (UTC)temp
C
wind
direction
speed
KPH
gust
KPH
rain 1hr
cm
rain 24hr
cm
rain mn
cm
humidity
%
barometer
mb
20260506013051 12 193 0.0 6.4 0.03 1.42 0.53 90 1009.6
20260506011535 12 132 0.0 1.6 0.03 1.42 0.53 90 1009.7
20260506010033 12 131 0.0 6.4 0.00 1.40 0.51 90 1009.9
20260506004532 12 163 3.2 11.3 0.00 1.40 0.51 90 1010.3
20260506003034 12 179 0.0 1.6 0.00 1.40 0.51 90 1010.4
20260506001528 12 107 0.0 1.6 0.00 1.40 0.51 90 1010.4
20260506000026 12 107 0.0 0.0 0.10 1.40 0.51 90 1010.6
20260505234533 12 107 0.0 1.6 0.25 1.40 0.51 90 1010.8
20260505233023 12 92 0.0 3.2 0.36 1.40 0.51 90 1010.7
20260505231523 12 92 1.6 4.8 0.41 1.40 0.51 90 1010.9
20260505230036 12 67 0.0 1.6 0.41 1.30 0.41 89 1010.9
20260505224519 12 67 0.0 0.0 0.33 1.12 0.23 89 1010.9
20260505223018 12 67 0.0 1.6 0.28 1.04 0.15 89 1011.0
20260505221517 12 67 0.0 1.6 0.30 0.99 0.10 89 1011.1
20260505220018 12 67 0.0 1.6 0.23 0.89 0.00 89 1011.2
20260505214519 12 67 0.0 1.6 0.13 0.79 0.79 89 1011.4
20260505213013 12 67 0.0 1.6 0.15 0.76 0.76 89 1011.5
20260505211513 12 67 0.0 0.0 0.10 0.69 0.69 89 1011.8
20260505210013 12 67 0.0 3.2 0.08 0.66 0.66 89 1011.8
20260505204512 12 84 0.0 3.2 0.08 0.66 0.66 89 1011.9
20260505203012 12 176 0.0 0.0 0.03 0.61 0.61 89 1011.8
20260505201511 12 176 0.0 0.0 0.00 0.58 0.58 88 1011.8
20260505200025 12 176 0.0 1.6 0.00 0.58 0.58 88 1011.6
20260505194510 13 176 0.0 3.2 0.00 0.58 0.58 88 1011.5
20260505193010 13 142 0.0 8.0 0.00 0.58 0.58 88 1011.5
20260505191509 12 213 1.6 4.8 0.00 0.58 0.58 88 1011.3
20260505190008 12 54 1.6 4.8 0.00 0.58 0.58 88 1011.1
20260505184508 12 54 0.0 1.6 0.00 0.58 0.58 88 1011.3
20260505183008 13 42 0.0 1.6 0.00 0.58 0.58 88 1011.3
20260505181507 13 94 0.0 3.2 0.00 0.58 0.58 88 1011.2
20260505180006 13 100 0.0 3.2 0.00 0.58 0.58 88 1011.2
20260505174506 13 73 0.0 4.8 0.00 0.58 0.58 88 1011.2
20260505173021 13 119 0.0 3.2 0.00 0.58 0.58 88 1011.3
20260505171505 13 115 0.0 4.8 0.00 0.58 0.58 88 1011.2
20260505170003 13 106 1.6 8.0 0.00 0.58 0.58 89 1011.2
20260505164503 12 115 3.2 8.0 0.00 0.58 0.58 89 1011.3
20260505163009 12 78 0.0 6.4 0.00 0.58 0.58 88 1011.4
20260505161505 12 86 3.2 8.0 0.00 0.58 0.58 89 1011.4
20260505153116 12 185 6.4 12.9 0.03 0.58 0.58 89 1011.8
20260505151604 12 159 4.8 11.3 0.03 0.58 0.58 89 1011.8
20260505140105 12 109 3.2 8.0 0.03 0.56 0.56 88 1012.0
20260505124550 12 123 3.2 8.0 0.03 0.53 0.53 88 1012.0
20260505123057 12 213 1.6 8.0 0.03 0.53 0.53 88 1012.0
20260505121549 12 106 0.0 4.8 0.03 0.53 0.53 88 1012.1
20260505120048 12 346 0.0 1.6 0.03 0.53 0.53 87 1012.2
20260505114548 12 346 0.0 4.8 0.00 0.51 0.51 87 1012.2
20260505113049 12 290 1.6 9.7 0.00 0.51 0.51 87 1012.1
20260505111554 12 330 4.8 11.3 0.00 0.51 0.51 86 1012.0
20260505101545 12 275 3.2 6.4 0.00 0.51 0.51 87 1012.1
20260505100050 12 299 6.4 12.9 0.00 0.51 0.51 87 1012.0
20260505094543 12 333 4.8 9.7 0.00 0.51 0.51 88 1012.0
20260505093043 12 310 3.2 11.3 0.03 0.51 0.51 88 1011.9
20260505091553 12 314 1.6 9.7 0.08 0.51 0.51 88 1011.9
20260505090054 12 9 4.8 9.7 0.13 0.51 0.51 88 1011.9
20260505084546 12 310 3.2 9.7 0.23 0.51 0.51 87 1011.8
20260505083048 12 315 4.8 6.4 0.33 0.48 0.48 87 1011.8
20260505081555 12 247 0.0 3.2 0.36 0.43 0.43 87 1011.8
20260505080046 11 205 0.0 1.6 0.36 0.38 0.38 87 1011.9
20260505074559 11 205 0.0 3.2 0.28 0.28 0.28 86 1012.1
20260505073038 12 205 0.0 1.6 0.15 0.15 0.15 86 1012.2
20260505071535 12 205 0.0 1.6 0.08 0.08 0.08 85 1012.1
20260505070032 12 205 0.0 1.6 0.03 0.03 0.03 81 1011.9
20260505064533 12 205 0.0 3.2 0.00 0.00 0.00 79 1011.7
20260505063038 13 205 0.0 3.2 0.00 0.00 0.00 81 1011.4
20260505061533 13 190 0.0 1.6 0.00 0.00 0.00 79 1011.4
20260505060027 13 190 0.0 0.0 0.00 0.00 0.00 78 1011.3
20260505054529 13 190 0.0 3.2 0.00 0.00 0.00 76 1011.2
20260505053026 13 261 1.6 6.4 0.00 0.00 0.00 74 1010.9
20260505051529 13 325 0.0 0.0 0.00 0.00 0.00 78 1011.0
20260505041523 13 315 0.0 4.8 0.00 0.00 0.00 76 1010.8
20260505040023 13 296 0.0 1.6 0.00 0.00 0.00 74 1010.8
20260505034521 14 295 0.0 6.4 0.00 0.00 0.00 68 1010.7
20260505033031 14 248 4.8 9.7 0.00 0.00 0.00 69 1010.9
20260505031519 14 348 0.0 8.0 0.00 0.00 0.00 69 1010.8
20260505030017 14 282 1.6 3.2 0.00 0.00 0.00 70 1011.0
20260505024533 14 279 3.2 11.3 0.00 0.00 0.00 69 1011.2
20260505023015 13 284 3.2 9.7 0.00 0.00 0.00 70 1011.5
20260505021526 13 281 3.2 9.7 0.00 0.00 0.00 74 1011.7
20260505020010 13 281 0.0 1.6 0.00 0.00 0.00 75 1012.0
20260505014509 13 281 0.0 1.6 0.00 0.00 0.00 74 1012.0